[[{"header":{"parameterUnit":"m.s-1","parameterCategory":1,"la1":30.2991,"la2":30.254,"lo1":-89.0895,"lo2":-89.0444,"dy":0.0017,"dx":0.0017,"nx":28,"ny":28,"refTime":"2025-07-17T21:00:00:Z","depth":0,"parameterNumber":2,"parameterNumberName":"U-component_of_WINDS"},"data":[0,0,0,0,0,0,0,0,0,0,0,0,0,0,0,0,0,0,0,0,0,0,0,0,0,0,0,0,0,0,0,0,0,0,0,0,0,0,0,0,0,0,0,0,0,0,0,0,0,0,0,0,0,0,0,0,0,0,-2.1872,-2.1874,0,-2.2119,-2.2122,-2.2125,-2.233,-2.2332,-2.2334,-2.2336,-2.2586,-2.2591,-2.2595,0,0,0,0,0,0,0,0,0,0,0,0,0,-2.1573,-2.1577,-2.1871,-2.1874,-2.1877,-2.2119,-2.2122,-2.2125,-2.233,-2.2332,-2.2335,-2.2337,-2.2585,-2.259,-2.2596,0,0,0,0,0,0,0,0,0,0,0,0,0,-2.1749,-2.1579,-2.1871,-2.2009,-2.2023,-2.2118,-2.2122,-2.2126,-2.2329,-2.2332,-2.2336,-2.2339,-2.2583,-2.259,-2.2597,-2.2573,0,0,-2.2618,-2.2621,0,0,0,0,0,0,0,0,-2.1739,-2.176,-2.1985,-2.1999,-2.2016,-2.2197,-2.2109,-2.2276,-2.2328,-2.2213,-2.2337,-2.234,-2.2454,-2.2472,-2.2511,-2.2585,-2.2596,-2.2618,-2.2622,-2.2625,-2.2627,0,0,0,0,0,0,0,-2.1727,-2.1751,-2.1969,-2.1988,-2.2007,-2.2057,-2.2086,-2.2141,-2.2312,-2.2223,-2.2239,-2.2265,-2.2463,-2.2504,-2.2518,-2.2599,-2.2618,-2.2624,-2.2628,-2.2631,-2.2668,-2.2665,0,0,0,0,0,0,-2.1694,-2.1739,-2.1961,-2.1977,-2.1883,-2.206,-2.2092,-2.2136,-2.2312,-2.2342,-2.2262,-2.2274,-2.249,-2.251,-2.2528,-2.2511,-2.2625,-2.2632,-2.2636,-2.2671,-2.2667,-2.2664,0,0,0,0,0,0,-2.1686,-2.1711,-2.1951,-2.1862,-2.1897,-2.2062,-2.2109,-2.2139,-2.218,-2.2341,-2.2373,-2.2272,-2.2494,-2.2518,-2.2561,-2.2523,-2.2635,-2.2641,-2.2675,-2.267,-2.2665,-2.2478,0,0,0,0,0,0,-2.1677,-2.1708,-2.1701,-2.1861,-2.1901,-2.198,-2.2107,-2.2141,-2.2191,-2.2209,-2.2359,-2.2387,-2.2498,-2.2549,-2.2568,-2.2534,-2.2647,-2.2679,-2.2672,-2.2667,-2.2488,-2.2467,-2.245,0,0,0,0,0,-2.1666,-2.1637,-2.1699,-2.1725,-2.1896,-2.1977,-2.2,-2.2129,-2.2187,-2.2181,-2.2286,-2.2382,-2.2525,-2.2552,-2.2574,-2.2542,-2.2681,-2.2674,-2.2667,-2.2497,-2.2471,-2.245,0,0,0,0,0,0,-2.1466,-2.1661,-2.1731,-2.1754,-2.1848,-2.2012,-2.2008,-2.2098,-2.2176,-2.2189,-2.2346,-2.2378,-2.2403,-2.2478,-2.2505,-2.253,-2.2616,-2.2613,-2.2479,-2.2456,-2.2437,-2.2417,-2.2652,0,0,0,0,0,-2.1426,-2.1477,-2.1644,-2.1648,-2.1691,-2.1841,-2.1882,-2.1973,-2.2076,-2.2116,-2.2224,-2.2319,-2.2386,-2.2426,-2.2496,-2.2502,-2.2537,-2.2491,-2.2472,-2.2455,-2.2449,-2.2457,-2.2438,-2.264,-2.264,-2.264,0,0,-2.134,-2.1453,-2.1476,-2.161,-2.1694,-2.1742,-2.1873,-2.1919,-2.1956,-2.2123,-2.217,-2.2252,-2.2369,-2.2393,-2.2409,-2.2456,-2.2402,-2.2446,-2.2431,-2.2435,-2.2448,-2.2428,-2.2411,-2.2635,-2.2636,-2.2637,0,0,-2.121,-2.1301,-2.1314,-2.1396,-2.1521,-2.1622,-2.1624,-2.1776,-2.1837,-2.1887,-2.2014,-2.2061,-2.2172,-2.225,-2.2304,-2.2206,-2.2297,-2.2225,-2.2122,-2.2128,-2.2112,-2.2098,-2.2061,-2.2046,-2.2219,-2.2219,-2.2219,0,-2.1088,-2.1167,-2.1309,-2.1348,-2.1402,-2.1559,-2.1573,-2.1645,-2.1785,-2.1819,-2.1872,-2.2016,-2.2105,-2.2149,-2.2125,-2.2165,-2.2172,-2.2206,-2.2103,-2.2091,-2.2081,-2.2047,-2.2032,-2.2209,-2.221,-2.2211,-2.2212,0,-2.101,-2.1063,-2.1058,-2.1191,-2.1247,-2.1272,-2.1418,-2.1457,-2.1545,-2.1639,-2.1688,-2.1802,-2.1898,-2.1916,-2.2002,-2.1972,-2.1997,-2.2074,-2.2163,-2.2049,-2.202,-2.2008,-2.2195,-2.2198,-2.2201,-2.2204,0,0,-2.0756,-2.0971,-2.0966,-2.1028,-2.118,-2.1223,-2.1256,-2.1352,-2.1381,-2.1474,-2.1504,-2.1597,-2.1669,-2.173,-2.1827,-2.1832,-2.1745,-2.1909,-2.1914,-2.1872,-2.1717,-2.1655,-2.1638,-2.1809,-2.1807,-2.1805,-2.1707,0,-2.0648,-2.0716,-2.0846,-2.0873,-2.0923,-2.1074,-2.1103,-2.1198,-2.1288,-2.1343,-2.1444,-2.1505,-2.1598,-2.1635,-2.1648,-2.1752,-2.1715,-2.1762,-2.1836,-2.1837,-2.1798,-2.1624,-2.1559,-2.1459,-2.1696,-2.1695,-2.1693,0,-2.0529,-2.0614,-2.0645,-2.0794,-2.082,-2.0843,-2.0941,-2.0993,-2.1105,-2.117,-2.1239,-2.1346,-2.1389,-2.1473,-2.1533,-2.1562,-2.1601,-2.1657,-2.1657,-2.1665,-2.1755,-2.1624,-2.1431,-2.1414,-2.1677,-2.1678,-2.168,0,-2.0337,-2.046,-2.0495,-2.0544,-2.0719,-2.0732,-2.0805,-2.0921,-2.097,-2.1056,-2.1089,-2.1178,-2.1226,-2.1293,-2.1421,-2.1471,-2.1466,-2.1561,-2.1519,-2.1515,-2.1508,-2.1505,-2.1314,-2.1538,-2.1538,-2.1539,-2.1539,0,-2.02,-2.0212,-2.0411,-2.0431,-2.045,-2.0601,-2.0615,-2.0702,-2.0804,-2.0844,-2.0981,-2.1015,-2.1184,-2.1238,-2.1339,-2.1372,-2.1394,-2.1447,-2.1472,-2.1432,-2.1424,-2.1456,-2.1465,-2.1535,-2.1536,-2.1537,-2.1537,0,-1.9986,-2.012,-2.0168,-2.0331,-2.0372,-2.0378,-2.0517,-2.0543,-2.0643,-2.0692,-2.0712,-2.0868,-2.0939,-2.1075,-2.1183,-2.1251,-2.1261,-2.1309,-2.1222,-2.1238,-2.1187,-2.1188,-2.1006,-2.0989,-2.1226,-2.1223,-2.1221,0,-1.9888,-1.9901,-2.0066,-2.0103,-2.0171,-2.023,-2.0281,-2.0431,-2.0478,-2.0608,-2.0617,-2.0699,-2.0772,-2.0878,-2.1001,-2.1085,-2.1133,-2.1064,-2.1146,-2.1105,-2.1129,-2.1124,-2.1126,-2.1043,-2.104,-2.1037,-2.1035,0,-1.9697,-1.9764,-1.9833,-1.9925,-1.9983,-2.0063,-2.015,-2.0172,-2.0342,-2.0388,-2.0463,-2.052,-2.0632,-2.0711,-2.0813,-2.0889,-2.0988,-2.1009,-2.1004,-2.096,-2.0908,-2.0932,-2.1168,-2.1011,-2.1014,-2.1016,-2.1017,-2.1018,-1.9537,-1.9556,-1.9674,-1.9747,-1.9829,-1.9907,-1.9939,-2.0044,-2.0109,-2.0212,-2.0297,-2.0364,-2.0477,-2.0625,-2.0695,-2.0749,-2.0797,-2.0789,-2.0787,-2.0781,-2.0763,-2.0903,-2.0769,-2.077,-2.0771,-2.0771,-2.0772,0,-1.9351,-1.9436,-1.9501,-1.9619,-1.9676,-1.9769,-1.9871,-1.9911,-1.9969,-2.0067,-2.0137,-2.0222,-2.03,-2.043,-2.0519,-2.0537,-2.0585,-2.0555,-2.0553,-2.0568,-2.0717,-2.0712,-2.0514,-2.0514,-2.0514,-2.0514,-2.0514,-2.0514,-1.9261,-1.9297,-1.9377,-1.9455,-1.9541,-1.9608,-1.9657,-1.973,-1.9809,-1.9898,-1.9964,-2.005,-2.016,-2.0258,-2.0334,-2.037,-2.0395,-2.0349,-2.0399,-2.0534,-2.0558,-2.0581,-2.0576,-2.0354,-2.0354,-2.0246,-2.0244,-2.0244]},{"header":{"parameterUnit":"m.s-1","parameterCategory":1,"la1":30.2991,"la2":30.254,"lo1":-89.0895,"lo2":-89.0444,"dy":0.0017,"dx":0.0017,"nx":28,"ny":28,"refTime":"2025-07-17T21:00:00:Z","depth":0,"parameterNumber":3,"parameterNumberName":"V-component_of_WINDS"},"data":[0,0,0,0,0,0,0,0,0,0,0,0,0,0,0,0,0,0,0,0,0,0,0,0,0,0,0,0,0,0,0,0,0,0,0,0,0,0,0,0,0,0,0,0,0,0,0,0,0,0,0,0,0,0,0,0,0,0,4.7879,4.7882,0,4.8225,4.8229,4.8233,4.8336,4.8334,4.8332,4.8331,4.8681,4.8692,4.8703,0,0,0,0,0,0,0,0,0,0,0,0,0,4.7302,4.7312,4.7878,4.7883,4.7887,4.8224,4.8229,4.8234,4.8336,4.8334,4.8332,4.833,4.8678,4.8691,4.8704,0,0,0,0,0,0,0,0,0,0,0,0,0,4.7591,4.7315,4.7877,4.7979,4.7991,4.8223,4.8229,4.8235,4.8337,4.8334,4.8331,4.8329,4.8674,4.869,4.8706,4.8861,0,0,4.8756,4.8763,0,0,0,0,0,0,0,0,4.7574,4.7612,4.796,4.7972,4.7987,4.8235,4.8155,4.8445,4.8337,4.8205,4.8331,4.8328,4.8535,4.8562,4.8633,4.8877,4.8892,4.8758,4.8768,4.8775,4.8779,0,0,0,0,0,0,0,4.7554,4.7597,4.8015,4.7964,4.7981,4.8006,4.8044,4.821,4.8381,4.8217,4.8225,4.8265,4.8542,4.8617,4.8642,4.8897,4.8757,4.8772,4.8782,4.8788,4.9287,4.9291,0,0,0,0,0,0,4.7517,4.758,4.8004,4.8026,4.777,4.8018,4.8061,4.8158,4.8379,4.841,4.8267,4.8268,4.859,4.8623,4.8655,4.8852,4.8775,4.879,4.88,4.9284,4.9288,4.9292,0,0,0,0,0,0,4.7504,4.7554,4.799,4.7805,4.7863,4.8031,4.8139,4.8166,4.8242,4.8417,4.8448,4.8313,4.8589,4.8632,4.8809,4.8865,4.8797,4.8812,4.928,4.9285,4.929,4.9245,0,0,0,0,0,0,4.7487,4.7549,4.761,4.7806,4.7872,4.814,4.8142,4.8175,4.827,4.8276,4.8468,4.8498,4.859,4.8784,4.8826,4.8887,4.8825,4.9276,4.9282,4.9288,4.9243,4.9248,4.9253,0,0,0,0,0,4.7467,4.7582,4.7613,4.7663,4.7952,4.8143,4.818,4.8286,4.8274,4.8337,4.845,4.8491,4.8853,4.8802,4.8849,4.8916,4.9273,4.9281,4.9288,4.924,4.9247,4.9253,0,0,0,0,0,0,4.7386,4.761,4.7646,4.7829,4.7966,4.816,4.8242,4.829,4.8433,4.8431,4.8555,4.8598,4.8767,4.886,4.8799,4.9078,4.9064,4.9081,4.9011,4.9019,4.9025,4.8998,4.8839,0,0,0,0,0,4.739,4.7527,4.7715,4.7858,4.7925,4.8071,4.8158,4.8228,4.8375,4.8433,4.8559,4.8699,4.8844,4.8937,4.908,4.9257,4.93,4.9326,4.9331,4.9335,4.9348,4.9449,4.9463,4.9317,4.9317,4.9317,0,0,4.7399,4.7538,4.7617,4.7845,4.796,4.8099,4.812,4.8265,4.8368,4.8455,4.8631,4.8728,4.8893,4.9071,4.9155,4.9153,4.9399,4.9345,4.9346,4.9358,4.9458,4.9472,4.9484,4.9322,4.9321,4.932,0,0,4.7486,4.7605,4.7738,4.7853,4.8028,4.8124,4.8156,4.8344,4.8412,4.8591,4.866,4.8784,4.9032,4.9146,4.9237,4.9369,4.9413,4.9413,4.9439,4.9537,4.9548,4.9559,4.9606,4.9622,4.9425,4.9425,4.9425,0,4.7474,4.7687,4.7799,4.7943,4.8041,4.8128,4.8263,4.8369,4.858,4.8646,4.8641,4.8955,4.9071,4.9278,4.931,4.9381,4.9421,4.939,4.9538,4.955,4.9561,4.9608,4.9625,4.9424,4.9424,4.9424,4.9425,0,4.7664,4.781,4.7896,4.81,4.8209,4.8347,4.848,4.8576,4.8637,4.8734,4.8916,4.906,4.9234,4.9288,4.9348,4.9504,4.9497,4.9513,4.9501,4.9572,4.9618,4.9637,4.9422,4.9423,4.9423,4.9423,0,0,4.7707,4.7974,4.8004,4.8098,4.8298,4.8413,4.8555,4.8728,4.8808,4.8951,4.9073,4.9281,4.9298,4.9401,4.9475,4.956,4.9657,4.9567,4.9572,4.9578,4.9837,4.9823,4.9842,4.9687,4.9691,4.9694,4.9823,0,4.7819,4.8078,4.8185,4.8394,4.853,4.8616,4.874,4.8875,4.8971,4.91,4.9204,4.935,4.9361,4.9424,4.9513,4.9626,4.971,4.9618,4.9801,4.9806,4.9757,4.9866,4.9852,4.9966,4.9842,4.9845,4.9847,0,4.7984,4.813,4.8353,4.8538,4.8599,4.8709,4.8876,4.8999,4.9155,4.9218,4.9334,4.9404,4.9556,4.9535,4.9746,4.9681,4.9763,4.983,4.9837,4.9857,4.983,4.9889,5.0006,5.0022,4.9877,4.9874,4.9872,0,4.7993,4.8246,4.8413,4.8491,4.871,4.8786,4.888,4.9034,4.9131,4.9277,4.9341,4.9502,4.959,4.9713,4.9825,4.9799,5.0025,5.0014,5.0082,5.0079,5.0124,5.012,5.0255,5.0178,5.0177,5.0177,5.0177,0,4.8106,4.8239,4.842,4.8522,4.8674,4.8795,4.8942,4.9042,4.9178,4.9301,4.9385,4.9498,4.9639,4.977,4.9859,5.002,5.0059,5.0114,5.0136,5.0107,5.0099,5.0161,5.0155,5.0182,5.0181,5.018,5.0179,0,4.8141,4.8268,4.8455,4.8649,4.8701,4.8804,4.8969,4.9072,4.9171,4.9326,4.9369,4.9525,4.9684,4.9809,5.0015,5.0075,5.0245,5.0269,5.0193,5.0204,5.0265,5.0257,5.0444,5.0474,5.0376,5.0376,5.0377,0,4.8205,4.831,4.8515,4.8604,4.8699,4.8841,4.8942,4.9066,4.9167,4.9353,4.9433,4.9598,4.9737,4.9987,5.0118,5.0277,5.0305,5.036,5.0329,5.0297,5.0306,5.0298,5.0309,5.0363,5.0363,5.0364,5.0364,0,4.8304,4.8362,4.8504,4.8669,4.8787,4.8923,4.906,4.9128,4.9277,4.9386,4.955,4.9658,4.9871,5.0033,5.0206,5.0303,5.0358,5.0373,5.0397,5.0367,5.0319,5.0346,5.0202,5.0368,5.0367,5.0367,5.0367,5.0367,4.8356,4.8453,4.8613,4.877,4.8886,4.9013,4.9119,4.9233,4.9373,4.9556,4.9621,4.979,4.9945,5.0183,5.0282,5.0416,5.0418,5.0453,5.0462,5.0468,5.0465,5.0298,5.0447,5.0447,5.0448,5.0448,5.0448,0,4.8459,4.8567,4.8709,4.89,4.9022,4.9066,4.922,4.932,4.9468,4.9609,4.9744,4.9934,5.0093,5.0238,5.0404,5.0483,5.0513,5.0522,5.0517,5.0539,5.0453,5.0416,5.0496,5.0496,5.0496,5.0496,5.0496,5.0496,4.8527,4.8694,4.8772,4.8998,4.9105,4.9273,4.9357,4.9475,4.9587,4.9796,4.9929,5.0023,5.0166,5.0343,5.0491,5.053,5.0586,5.059,5.0634,5.0551,5.0545,5.0538,5.0504,5.0601,5.0601,5.0709,5.071,5.0711]}]]